Weather observations for the past three days for
Chicago, Chicago Midway Airport
Imperial (Metric)
Date Time (cdt) Wind (mph) Vis. (mi.) Weather Sky Cond. Temperature (ºF) Relative Humidity Wind Chill (°F) Heat Index (°F) Pressure Precipitation (in)
Air Dwpt 6 hour altimeter (in) sea level (mb) 1 hr 3 hr 6 hr
Max. Min.
25 03:53 SW 13 G 26 10.00 Overcast FEW110 OVC230 77 64 64% 79 29.75 1006.3
25 02:53 SW 16 G 32 10.00 Partly Cloudy FEW050 FEW110 SCT230 77 63 62% 79 29.77 1006.7
25 01:53 SW 22 G 31 10.00 Overcast and Breezy FEW050 SCT110 OVC230 75.9 64 67% 78 29.79 1007.7
25 00:53 SW 18 G 30 10.00 Thunderstorm FEW050CB BKN110 OVC200 80.1 64 87.1 80.1 58% 82 29.81 1008.3
24 23:53 S 12 10.00 Overcast FEW050 SCT110 OVC200 81 64.9 58% 83 29.85 1009.5
24 22:53 S 3 10.00 Overcast FEW050 BKN110 BKN150 OVC200 82.9 66 57% 85 29.95 1012.9
24 21:53 S 9 10.00 Thunderstorm SCT055CB BKN120 BKN150 BKN200 84 64 51% 85 29.88 1010.7
24 20:53 S 9 10.00 Mostly Cloudy SCT055 SCT095 BKN110 BKN250 86 63 46% 87 29.84 1009.4
24 19:53 S 9 G 22 10.00 Mostly Cloudy SCT055 SCT120 BKN250 86 63 46% 87 29.85 1009.8
24 18:53 SW 13 10.00 Partly Cloudy FEW055 SCT150 SCT250 87.1 63 88 82 45% 88 29.87 1010.2
24 17:53 S 6 G 17 10.00 Partly Cloudy FEW055 SCT150 SCT250 86 63 46% 87 29.89 1011.0
24 16:53 E 10 10.00 Mostly Cloudy SCT060 SCT150 BKN250 84.9 60.1 43% 85 29.9 1011.5
24 15:53 E 12 10.00 Mostly Cloudy SCT050 SCT150 BKN250 84 61 46% 84 29.92 1012.2
24 14:53 E 9 G 18 10.00 Partly Cloudy SCT050 SCT250 84 62.1 48% 85 29.94 1012.9
24 13:53 E 12 10.00 Partly Cloudy SCT050 82.9 63 51% 84 29.95 1013.4
24 12:53 E 9 10.00 Partly Cloudy FEW050 SCT065 SCT250 81 62.1 84 72 53% 82 29.97 1013.9
24 11:53 E 14 10.00 Partly Cloudy SCT050 SCT065 SCT250 81 63 54% 82 29.98 1014.1
24 10:53 Calm 10.00 A Few Clouds FEW050 FEW250 84 61 46% 84 29.97 1013.8
24 09:53 Calm 10.00 A Few Clouds FEW250 80.1 60.1 51% 81 29.97 1013.8
24 08:53 Calm 10.00 A Few Clouds FEW250 78.1 60.1 54% 79 29.97 1013.9
24 07:53 Calm 10.00 A Few Clouds FEW250 75.9 61 60% 78 29.97 1013.8
24 06:53 Calm 10.00 A Few Clouds FEW100 FEW250 72 61 72 66.9 68% 29.96 1013.5
24 05:53 NW 5 10.00 Fair CLR 68 62.1 81% 29.94 1013.0
24 04:53 W 6 10.00 Fair CLR 68 62.1 81% 29.93 1012.5
24 03:53 SW 3 10.00 Fair CLR 68 61 78% 29.91 1012.1
24 02:53 Calm 10.00 Fair CLR 69.1 62.1 78% 29.9 1011.5
24 01:53 W 3 10.00 Fair CLR 69.1 62.1 78% 29.9 1011.5
24 00:53 W 6 10.00 Fair CLR 71.1 61 78.1 71.1 71% 29.9 1011.4
23 23:53 W 5 10.00 Fair CLR 72 61 68% 29.89 1011.3
23 22:53 W 5 10.00 Fair CLR 72 61 68% 29.88 1011.1
23 21:53 NW 7 10.00 Fair CLR 73.9 60.1 62% 29.87 1010.6
23 20:53 NW 12 G 17 10.00 A Few Clouds FEW040 75 60.1 60% 77 29.86 1010.3
23 19:53 NW 12 10.00 Partly Cloudy SCT040 77 60.1 56% 79 29.85 1009.8
23 18:53 NW 14 10.00 Mostly Cloudy BKN040 78.1 60.1 82.9 75.9 54% 79 29.85 1009.6
23 17:53 NW 9 G 20 10.00 Mostly Cloudy BKN040 78.1 60.1 54% 79 29.84 1009.4
23 16:53 NW 15 10.00 Mostly Cloudy BKN038 BKN046 79 62.1 56% 80 29.83 1009.1
23 15:53 NE 12 10.00 Mostly Cloudy FEW010 BKN043 BKN050 75.9 64.9 69% 78 29.82 1008.9
23 14:53 NW 14 G 23 10.00 Mostly Cloudy SCT039 SCT047 BKN060 82.9 63 51% 84 29.81 1008.3
23 13:53 NW 14 10.00 Mostly Cloudy SCT039 BKN050 80.1 63 56% 81 29.8 1008.0
23 12:53 NW 14 G 25 10.00 Mostly Cloudy SCT036 BKN048 81 64 81 73 57% 83 29.79 1007.9
23 11:53 NW 15 10.00 Mostly Cloudy BKN031 BKN050 81 64 57% 83 29.78 1007.6
23 10:53 W 15 G 23 10.00 Mostly Cloudy SCT024 BKN045 77 64 64% 79 29.77 1007.0
23 09:53 NW 12 10.00 Mostly Cloudy BKN021 BKN033 75.9 66 72% 77 29.76 1006.6
23 08:53 NW 13 G 22 10.00 Mostly Cloudy BKN017 BKN030 75 66.9 76% 76 29.75 1006.2
23 07:53 W 14 10.00 Mostly Cloudy BKN017 BKN032 75 66.9 76% 76 29.74 1005.8
23 06:53 NW 12 10.00 A Few Clouds FEW010 FEW017 73 66 73.9 72 79% 29.72 1005.2 0.08
23 05:53 NW 9 10.00 Partly Cloudy FEW009 FEW013 SCT023 73 66.9 81% 29.7 1004.6
23 04:53 NW 7 10.00 Overcast FEW009 BKN017 OVC020 73.9 69.1 85% 29.69 1003.9
23 03:53 W 8 10.00 Overcast FEW009 BKN016 OVC020 73.9 71.1 91% 29.67 1003.3 0.08
23 02:53 W 12 10.00 Overcast BKN008 OVC014 73.9 71.1 91% 29.68 1003.6
23 01:53 SW 9 10.00 Light Rain SCT008 SCT085 BKN110 OVC180 73.9 71.1 91% 29.67 1003.5 0.08
23 00:53 S 10 5.00 Thunderstorm Light Rain Fog/Mist FEW029 SCT050CB OVC110 73 70 89.1 73 90% 29.69 1004.2 0.68 1.47
22 23:53 W 10 G 30 1.00 Thunderstorm Heavy Rain Fog/Mist FEW013 BKN018 OVC046CB 73 71.1 94% 29.75 1006.0 0.79
22 22:53 SW 16 G 24 10.00 Overcast FEW065 BKN110 OVC140 86 66 51% 88 29.67 1003.1
22 21:53 S 16 G 33 10.00 Mostly Cloudy FEW065 SCT100 BKN120 BKN250 87.1 64 46% 88 29.68 1003.7
22 20:53 SW 18 G 31 10.00 Mostly Cloudy SCT090 BKN120 BKN250 87.1 63 45% 88 29.7 1004.5
22 19:53 SW 21 G 32 10.00 Mostly Cloudy and Breezy SCT100 BKN120 BKN250 89.1 61 39% 89 29.72 1005.2
22 18:53 SW 17 G 35 10.00 Mostly Cloudy FEW065 SCT080 BKN180 BKN250 90 61 95 90 38% 90 29.73 1005.3
22 17:53 SW 21 G 29 10.00 Mostly Cloudy and Breezy FEW065 SCT090 BKN120 BKN180 BKN250 91.9 61 36% 92 29.77 1006.8
22 16:53 SW 20 G 38 10.00 Mostly Cloudy FEW065 SCT100 BKN180 BKN250 91.9 62.1 37% 93 29.79 1007.4
22 15:53 SW 15 G 26 10.00 Mostly Cloudy FEW065 BKN100 BKN180 BKN250 91.9 64 40% 94 29.81 1008.3
22 14:53 SW 17 G 31 10.00 Mostly Cloudy SCT065 BKN180 BKN250 93.9 64.9 38% 96 29.83 1008.9
22 13:53 SW 23 G 35 10.00 Mostly Cloudy and Breezy SCT070 BKN180 BKN250 93.9 64 37% 96 29.85 1009.3
22 12:53 SW 22 G 36 10.00 Mostly Cloudy and Breezy SCT055 BKN180 BKN250 93 64 93.9 80.1 38% 95 29.87 1010.1
22 11:53 SW 17 G 30 10.00 Mostly Cloudy SCT055 BKN180 BKN250 91.9 66 43% 95 29.89 1010.6
22 10:53 SW 21 G 26 10.00 Mostly Cloudy and Breezy FEW050 FEW180 BKN250 90 66.9 47% 93 29.9 1011.1
22 09:53 SW 24 G 31 10.00 Mostly Cloudy and Breezy FEW090 SCT180 BKN250 88 68 52% 92 29.93 1012.1
22 08:53 SW 12 G 22 10.00 Mostly Cloudy FEW090 SCT180 BKN250 84.9 66.9 55% 88 29.96 1013.0
22 07:53 SW 13 G 25 10.00 Mostly Cloudy FEW090 SCT180 BKN250 82.9 66 57% 85 29.97 1013.6
22 06:53 SW 14 10.00 Mostly Cloudy FEW090 BKN180 BKN250 80.1 64.9 82.9 73.9 60% 82 29.98 1013.9
22 05:53 S 7 10.00 Mostly Cloudy FEW090 SCT200 BKN250 79 64.9 62% 81 29.99 1014.2
22 04:53 S 5 10.00 Mostly Cloudy FEW080 BKN200 77 64.9 66% 79 30 1014.5
Date Time (cdt) Wind (mph) Vis. (mi.) Weather Sky Cond. Air Dwpt Max. Min. Relative Humidity Wind Chill (°F) Heat Index (°F) altimeter (in) sea level (mb) 1 hr 3 hr 6 hr
6 hour
Temperature (ºF) Pressure Precipitation (in)